Location: Biltmore Gardens
(41.6070°N, 83.4666°W)
Time: 14:22:28
(UTC+00:00)

IRAS Rocket - Pass Details

Date: 14 July 2020
Orbit: 848 x 877 km, 100.1° (Epoch: 05 August)

Event Time Altitude Azimuth Distance (km) Brightness Sun altitude
Exits shadow 07:00:57 52° 159° (SSE) 1,045 4.3 -24.1°
Maximum altitude 07:02:21 87° 73° (ENE) 855 4.1 -24.0°
Drops below altitude 10° 07:07:53 10° 345° (NNW) 2,487 7.3 -23.6°
Sets 07:10:15 0° 345° (NNW) 3,430 8.2 -23.4°
